SCP
-0 0 0 0 0 0 0 0 0 0 0 0 0 0 0 0 0 0 0 0 0 0
0 0 0 0 0 0 0 0 0 0 0 0 0 0 0 0 0 0 0 0 0 0
0 0 -0 -0 -0 0 0 -0 -0 0 0 0 0 0 0 0 0 0 0 0 0 0
0 -0 0 0 -0 0 0 0 0 0 -0 0 0 0 0 0 0 0 0 0 0 0
-0 -0 -0 -0 -0 -0 -0 -0 0 0 0 0 0 0 0 0 0 -0 -0 -0 0 -0
-0 -0 -0 -0 -0 -0 -0 -0 0 -0 -0 -0 0 0 0 0 0 0 0 -0 -0 -0
-0 -0 -0 -0 -0 -0 -0 -0 -0 -0 -0 -0 0 0 0 0 0 0 -0 -0 0 0
-0 -0 -0 -0 -0 -0 -0 -0 -0 -0 0 -0 -0 -0 -0 0 0 0 0 0 0 0
0 -0 -0 -0 -0 -0 -0 -0 -0 -0 -0 0 -0 -0 -0 -0 -0 -0 -0 -0 -0 -0
0 0 0 -0 0 -0 -0 -0 -0 -0 -0 -0 -0 0 0 0 0 0 -0 -0 -0 0
0 0 0 -0 -0 0 -0 -0 -0 -0 -0 -0 -0 -0 0 0 0 -0 -0 -0 0 0
0 0 0 -0 -0 0 0 -0 -0 -0 -0 -0 -0 -0 -0 -0 -0 0 0 0 0 0
0 0 0 0 0 0 0 -0 0 -0 -0 -0 -0 0 0 -0 0 0 0 -0 -0 -0
0 0 0 0 0 0 0 0 0 0 0 -0 -0 0 0 -0 0 -0 0 0 0 0
Wind_Speed_500mb
14 16 15 16 21 25 25 36 31 45 28 59 61 54 64 54 59 41 42 39 32 23
17 19 20 20 18 21 28 28 40 38 38 42 38 54 55 57 54 44 42 42 31 28
26 27 24 21 22 24 28 32 32 35 30 39 42 46 45 48 50 49 45 45 33 21
21 26 28 28 27 25 23 23 37 44 36 39 36 39 39 42 51 49 47 45 42 28
22 22 24 26 27 27 27 28 26 37 40 38 35 34 35 42 53 49 42 45 49 38
27 22 19 20 18 21 27 32 35 36 35 36 35 33 37 44 46 40 35 38 35 36
31 26 23 23 19 22 24 29 31 32 28 29 33 36 42 42 44 43 36 31 32 32
31 32 28 27 26 26 28 28 23 25 26 29 29 29 34 39 42 41 39 39 40 36
35 33 32 32 30 30 26 26 28 24 29 27 28 31 34 36 39 39 39 41 48 46
41 38 36 35 33 30 29 29 30 28 28 28 30 34 36 38 38 39 41 44 48 48
47 45 41 39 36 34 33 33 32 31 30 30 34 36 39 41 41 42 44 46 47 47
52 49 47 45 42 40 38 37 35 34 34 34 36 40 44 44 45 46 48 49 49 47
54 51 48 46 45 42 40 39 38 37 38 39 39 42 46 49 48 50 51 52 51 49
58 53 48 46 46 45 43 42 41 41 41 42 44 45 48 50 50 49 51 52 52 52
Wind_Direction_500mb
137 150 161 144 161 161 173 175 174 196 213 215 205 209 199 201 200 189 195 200 200 202
117 151 169 155 149 168 176 174 179 181 199 188 203 206 200 214 195 192 198 203 198 196
107 110 123 145 166 176 182 195 185 186 192 197 199 204 209 206 197 194 195 201 200 214
128 119 108 128 127 128 136 168 191 196 192 184 190 201 212 200 199 195 198 201 201 221
154 142 136 130 121 113 128 106 132 178 185 186 174 186 190 202 191 194 200 199 208 219
182 174 164 160 130 120 121 124 125 125 134 147 156 155 180 182 185 185 189 198 210 214
178 180 180 173 165 152 142 140 135 141 142 149 154 163 175 184 185 187 187 194 187 186
182 185 188 178 177 169 173 172 172 175 174 163 171 177 180 181 190 197 198 183 184 182
194 190 185 188 185 179 181 183 179 178 171 183 182 180 180 184 187 192 191 188 181 178
195 200 199 195 197 196 193 191 188 190 188 186 184 182 181 184 188 188 187 186 181 177
198 198 201 204 197 196 194 192 193 196 197 198 192 188 184 181 181 183 183 183 184 183
202 203 204 205 209 204 203 203 202 203 204 203 199 191 187 184 182 184 185 185 185 186
207 208 210 210 210 210 209 206 203 203 202 197 199 199 193 185 185 187 188 188 189 192
208 210 209 212 211 208 206 208 205 201 203 202 199 200 201 198 194 195 198 199 200 201
Wind_Speed_850mb
14 16 15 16 21 25 25 36 31 45 28 59 61 54 64 54 59 41 42 39 32 23
17 19 20 20 18 21 28 28 40 38 38 42 38 54 55 57 54 44 42 42 31 28
26 27 24 21 22 24 28 32 32 35 30 39 42 46 45 48 50 49 45 45 33 21
21 26 28 28 27 25 23 23 37 44 36 39 36 39 39 42 51 49 47 45 42 28
22 22 24 26 27 27 27 28 26 37 40 38 35 34 35 42 53 49 42 45 49 38
27 22 19 20 18 21 27 32 35 36 35 36 35 33 37 44 46 40 35 38 35 36
31 26 23 23 19 22 24 29 31 32 28 29 33 36 42 42 44 43 36 31 32 32
31 32 28 27 26 26 28 28 23 25 26 29 29 29 34 39 42 41 39 39 40 36
35 33 32 32 30 30 26 26 28 24 29 27 28 31 34 36 39 39 39 41 48 46
41 38 36 35 33 30 29 29 30 28 28 28 30 34 36 38 38 39 41 44 48 48
47 45 41 39 36 34 33 33 32 31 30 30 34 36 39 41 41 42 44 46 47 47
52 49 47 45 42 40 38 37 35 34 34 34 36 40 44 44 45 46 48 49 49 47
54 51 48 46 45 42 40 39 38 37 38 39 39 42 46 49 48 50 51 52 51 49
58 53 48 46 46 45 43 42 41 41 41 42 44 45 48 50 50 49 51 52 52 52
Wind_Direction_850mb
137 150 161 144 161 161 173 175 174 196 213 215 205 209 199 201 200 189 195 200 200 202
117 151 169 155 149 168 176 174 179 181 199 188 203 206 200 214 195 192 198 203 198 196
107 110 123 145 166 176 182 195 185 186 192 197 199 204 209 206 197 194 195 201 200 214
128 119 108 128 127 128 136 168 191 196 192 184 190 201 212 200 199 195 198 201 201 221
154 142 136 130 121 113 128 106 132 178 185 186 174 186 190 202 191 194 200 199 208 219
182 174 164 160 130 120 121 124 125 125 134 147 156 155 180 182 185 185 189 198 210 214
178 180 180 173 165 152 142 140 135 141 142 149 154 163 175 184 185 187 187 194 187 186
182 185 188 178 177 169 173 172 172 175 174 163 171 177 180 181 190 197 198 183 184 182
194 190 185 188 185 179 181 183 179 178 171 183 182 180 180 184 187 192 191 188 181 178
195 200 199 195 197 196 193 191 188 190 188 186 184 182 181 184 188 188 187 186 181 177
198 198 201 204 197 196 194 192 193 196 197 198 192 188 184 181 181 183 183 183 184 183
202 203 204 205 209 204 203 203 202 203 204 203 199 191 187 184 182 184 185 185 185 186
207 208 210 210 210 210 209 206 203 203 202 197 199 199 193 185 185 187 188 188 189 192
208 210 209 212 211 208 206 208 205 201 203 202 199 200 201 198 194 195 198 199 200 201